TimeCST,TemperatureF,Dew PointF,Humidity,Sea Level PressureIn,VisibilityMPH,Wind Direction,Wind SpeedMPH,Gust SpeedMPH,PrecipitationIn,Events,Conditions,WindDirDegrees,DateUTC
12:35 AM,36.5,33.4,89,30.24,10.0,East,8.1,-,N/A,,Overcast,90,2014-01-09 06:35:00
12:55 AM,36.7,33.3,87,30.23,10.0,East,9.2,-,N/A,,Overcast,100,2014-01-09 06:55:00
1:15 AM,36.5,33.8,90,30.23,10.0,East,9.2,-,N/A,,Overcast,100,2014-01-09 07:15:00
1:35 AM,36.5,33.3,88,30.22,10.0,East,10.4,-,N/A,,Overcast,100,2014-01-09 07:35:00
1:55 AM,36.7,33.8,89,30.23,10.0,East,8.1,-,N/A,,Overcast,100,2014-01-09 07:55:00
2:15 AM,36.7,34.0,90,30.23,10.0,East,6.9,-,N/A,,Overcast,100,2014-01-09 08:15:00
2:35 AM,36.7,34.2,91,30.23,7.0,East,6.9,-,N/A,,Overcast,90,2014-01-09 08:35:00
2:55 AM,36.7,34.7,93,30.22,10.0,East,6.9,-,N/A,,Overcast,100,2014-01-09 08:55:00
3:15 AM,36.5,34.7,93,30.22,4.0,ESE,10.4,-,N/A,Snow,Light Snow,110,2014-01-09 09:15:00
3:35 AM,36.5,35.1,95,30.22,5.0,East,9.2,-,N/A,,Overcast,100,2014-01-09 09:35:00
3:55 AM,36.5,35.2,95,30.21,4.0,ESE,9.2,-,N/A,,Overcast,110,2014-01-09 09:55:00
4:15 AM,36.5,35.2,95,30.20,3.0,ESE,13.8,17.3,N/A,,Overcast,120,2014-01-09 10:15:00
4:35 AM,36.5,35.6,97,30.19,3.0,ESE,12.7,-,N/A,,Overcast,110,2014-01-09 10:35:00
4:55 AM,36.7,35.6,96,30.20,4.0,ESE,8.1,-,N/A,,Overcast,110,2014-01-09 10:55:00
5:15 AM,36.7,35.6,96,30.19,5.0,ESE,11.5,19.6,N/A,,Overcast,110,2014-01-09 11:15:00
5:35 AM,36.7,35.6,96,30.20,4.0,ESE,8.1,-,N/A,,Overcast,110,2014-01-09 11:35:00
5:55 AM,36.9,35.8,96,30.20,5.0,East,5.8,-,N/A,,Overcast,100,2014-01-09 11:55:00
6:15 AM,36.9,35.8,96,30.21,5.0,ESE,5.8,-,N/A,,Overcast,110,2014-01-09 12:15:00
6:35 AM,37.0,36.0,96,30.20,5.0,ESE,6.9,-,N/A,,Overcast,110,2014-01-09 12:35:00
6:55 AM,37.4,36.1,95,30.21,5.0,East,5.8,-,N/A,,Overcast,100,2014-01-09 12:55:00
7:15 AM,37.4,36.1,95,30.21,4.0,ESE,6.9,-,N/A,,Overcast,110,2014-01-09 13:15:00
7:35 AM,37.4,36.1,95,30.21,4.0,East,5.8,-,N/A,,Overcast,100,2014-01-09 13:35:00
7:55 AM,37.4,36.5,97,30.22,3.0,ESE,6.9,-,N/A,,Overcast,110,2014-01-09 13:55:00
8:15 AM,37.6,36.5,96,30.23,2.5,ESE,5.8,-,N/A,,Overcast,110,2014-01-09 14:15:00
8:55 AM,37.9,36.9,96,30.23,1.5,East,6.9,-,N/A,,Overcast,100,2014-01-09 14:55:00
9:15 AM,38.3,37.4,97,30.24,1.2,East,5.8,-,N/A,,Overcast,100,2014-01-09 15:15:00
9:35 AM,38.3,37.4,97,30.24,1.8,East,5.8,-,N/A,,Overcast,100,2014-01-09 15:35:00
9:55 AM,38.5,37.6,97,30.24,2.5,East,6.9,-,N/A,,Overcast,100,2014-01-09 15:55:00
10:15 AM,38.8,37.8,96,30.25,3.0,ESE,6.9,-,N/A,,Overcast,110,2014-01-09 16:15:00
10:35 AM,39.2,38.3,97,30.24,2.5,ESE,9.2,-,N/A,,Overcast,110,2014-01-09 16:35:00
10:55 AM,39.2,38.3,97,30.23,2.0,ESE,9.2,-,N/A,,Overcast,120,2014-01-09 16:55:00
11:15 AM,39.6,38.7,97,30.23,1.5,ESE,10.4,-,N/A,,Overcast,110,2014-01-09 17:15:00
11:35 AM,39.9,39.0,97,30.22,1.2,ESE,11.5,-,N/A,,Overcast,120,2014-01-09 17:35:00
11:55 AM,40.1,39.2,97,30.20,1.5,ESE,10.4,-,N/A,,Overcast,120,2014-01-09 17:55:00
12:15 PM,40.3,39.4,97,30.19,1.0,ESE,6.9,-,N/A,,Overcast,120,2014-01-09 18:15:00
12:35 PM,40.3,39.4,97,30.18,0.5,ESE,8.1,-,N/A,Fog,Fog,110,2014-01-09 18:35:00
12:55 PM,40.5,39.6,97,30.16,0.5,ESE,6.9,-,N/A,Fog,Fog,110,2014-01-09 18:55:00
1:15 PM,40.8,39.9,97,30.15,0.5,East,4.6,-,N/A,Fog,Fog,90,2014-01-09 19:15:00
1:35 PM,40.8,39.9,97,30.15,0.5,ESE,6.9,-,N/A,Fog,Fog,110,2014-01-09 19:35:00
1:55 PM,41.0,40.1,97,30.14,0.5,East,6.9,-,N/A,Fog,Fog,90,2014-01-09 19:55:00
2:35 PM,41.2,40.3,97,30.12,0.2,East,5.8,-,N/A,Fog,Fog,90,2014-01-09 20:35:00
2:55 PM,41.2,40.5,97,30.13,0.2,East,5.8,-,N/A,Fog,Fog,100,2014-01-09 20:55:00
3:15 PM,41.5,40.6,97,30.13,0.2,ESE,8.1,-,N/A,Fog,Fog,120,2014-01-09 21:15:00
3:35 PM,41.5,40.6,97,30.13,0.2,ESE,5.8,-,N/A,Fog,Fog,120,2014-01-09 21:35:00
3:55 PM,41.5,41.0,98,30.13,0.2,ESE,5.8,-,N/A,Fog,Fog,110,2014-01-09 21:55:00
4:15 PM,41.5,41.0,98,30.13,0.2,East,5.8,-,N/A,Fog,Fog,80,2014-01-09 22:15:00
5:15 PM,41.4,40.6,97,30.13,0.2,ESE,8.1,-,N/A,Fog,Fog,110,2014-01-09 23:15:00
5:35 PM,41.2,40.5,97,30.13,0.5,ESE,8.1,-,N/A,Fog,Fog,110,2014-01-09 23:35:00
5:55 PM,41.2,40.5,97,30.13,1.0,ESE,8.1,-,N/A,,Overcast,120,2014-01-09 23:55:00
6:15 PM,41.2,40.5,97,30.13,1.0,ESE,10.4,-,N/A,,Overcast,120,2014-01-10 00:15:00
6:35 PM,41.0,40.3,97,30.13,1.5,ESE,10.4,-,N/A,,Overcast,120,2014-01-10 00:35:00
6:55 PM,41.0,40.3,97,30.13,1.2,ESE,9.2,-,N/A,,Overcast,120,2014-01-10 00:55:00
7:15 PM,41.0,40.3,97,30.13,0.8,ESE,6.9,-,N/A,,Overcast,110,2014-01-10 01:15:00
7:35 PM,41.0,40.3,97,30.12,0.8,ESE,9.2,-,N/A,,Overcast,120,2014-01-10 01:35:00
7:55 PM,41.0,40.3,97,30.12,0.8,ESE,11.5,16.1,N/A,,Overcast,120,2014-01-10 01:55:00
8:15 PM,41.0,40.1,97,30.10,1.0,ESE,12.7,-,N/A,,Overcast,110,2014-01-10 02:15:00
8:35 PM,41.0,40.1,97,30.11,1.2,ESE,8.1,-,N/A,,Overcast,120,2014-01-10 02:35:00
8:55 PM,41.0,40.3,97,30.10,0.8,East,6.9,-,N/A,,Overcast,100,2014-01-10 02:55:00
9:15 PM,41.0,40.3,97,30.10,0.5,ESE,5.8,-,N/A,Fog,Fog,110,2014-01-10 03:15:00
9:35 PM,41.2,40.5,97,30.11,0.5,ESE,5.8,-,N/A,Fog,Fog,120,2014-01-10 03:35:00
9:55 PM,41.0,40.3,97,30.10,0.5,East,3.5,-,N/A,Fog,Fog,100,2014-01-10 03:55:00
10:15 PM,41.0,40.1,97,30.10,0.2,East,6.9,-,N/A,Fog,Fog,100,2014-01-10 04:15:00
10:35 PM,41.0,40.1,97,30.08,0.5,East,5.8,-,N/A,Fog,Fog,100,2014-01-10 04:35:00
10:55 PM,41.0,40.1,97,30.07,0.5,ESE,6.9,-,N/A,Fog,Fog,110,2014-01-10 04:55:00
11:15 PM,41.0,40.1,97,30.06,0.5,East,8.1,-,N/A,Fog,Fog,100,2014-01-10 05:15:00
11:35 PM,41.0,40.1,97,30.05,0.8,East,6.9,-,N/A,,Overcast,90,2014-01-10 05:35:00
11:55 PM,41.0,40.1,97,30.05,0.5,East,6.9,-,N/A,Fog,Fog,100,2014-01-10 05:55:00